EN

Hourly Weather Ameglia

Today, 25 January, Monday

Time Temperature Precipitation Wind Pressure Humidity
00:00 +3°C° 0 mm 4 mps 743 mmHg 55%
01:00 +3°C° 0 mm 4 mps 743 mmHg 62%
02:00 +3°C° 0 mm 4 mps 742 mmHg 67%
03:00 +2°C° 0 mm 5 mps 742 mmHg 73%
04:00 +2°C° 0 mm 5 mps 742 mmHg 78%
05:00 +3°C° 0.2 mm 6 mps 742 mmHg 81%
06:00 +3°C° 0.2 mm 7 mps 741 mmHg 84%
07:00 +4°C° 0.2 mm 8 mps 741 mmHg 87%
08:00 +3°C° 0 mm 4 mps 744 mmHg 77%
09:00 +4°C° 0 mm 4 mps 745 mmHg 75%
10:00 +5°C° 0 mm 3 mps 746 mmHg 73%
11:00 +7°C° 0 mm 3 mps 747 mmHg 65%
12:00 +8°C° 0 mm 3 mps 747 mmHg 57%
13:00 +8°C° 0 mm 4 mps 748 mmHg 49%
14:00 +8°C° 0 mm 3 mps 749 mmHg 50%
15:00 +8°C° 0 mm 3 mps 749 mmHg 50%
16:00 +8°C° 0 mm 3 mps 749 mmHg 50%
17:00 +5°C° 0 mm 3 mps 750 mmHg 52%
18:00 +4°C° 0 mm 3 mps 750 mmHg 54%
19:00 +2°C° 0 mm 3 mps 751 mmHg 55%
20:00 +2°C° 0 mm 3 mps 751 mmHg 52%
21:00 +3°C° 0 mm 2 mps 752 mmHg 50%
22:00 +3°C° 0 mm 2 mps 752 mmHg 47%
23:00 +3°C° 0 mm 2 mps 752 mmHg 46%

Tomorrow, 26 January, Tuesday

Time Temperature Precipitation Wind Pressure Humidity
00:00 +4°C° 0 mm 1 mps 753 mmHg 44%
01:00 +4°C° 0 mm 1 mps 753 mmHg 43%
02:00 +4°C° 0 mm 1 mps 753 mmHg 42%
03:00 +4°C° 0 mm 1 mps 753 mmHg 42%
04:00 +4°C° 0 mm 1 mps 753 mmHg 41%
05:00 +3°C° 0 mm 2 mps 753 mmHg 41%
06:00 +3°C° 0 mm 2 mps 754 mmHg 42%
07:00 +2°C° 0 mm 2 mps 754 mmHg 42%
08:00 +5°C° 0 mm 1 mps 754 mmHg 44%
09:00 +6°C° 0 mm 1 mps 755 mmHg 45%
10:00 +8°C° 0 mm 1 mps 755 mmHg 47%
11:00 +8°C° 0 mm 1 mps 755 mmHg 46%
12:00 +9°C° 0 mm 1 mps 755 mmHg 45%
13:00 +10°C° 0 mm 1 mps 755 mmHg 45%
14:00 +10°C° 0 mm 1 mps 755 mmHg 50%
15:00 +9°C° 0 mm 1 mps 755 mmHg 55%
16:00 +9°C° 0 mm 1 mps 755 mmHg 61%
17:00 +7°C° 0 mm 1 mps 755 mmHg 66%
18:00 +6°C° 0 mm 1 mps 755 mmHg 71%
19:00 +4°C° 0 mm 2 mps 755 mmHg 76%
20:00 +4°C° 0 mm 2 mps 755 mmHg 77%
21:00 +4°C° 0 mm 2 mps 756 mmHg 78%
22:00 +4°C° 0 mm 2 mps 756 mmHg 79%
23:00 +4°C° 0 mm 2 mps 756 mmHg 79%

Day after tomorrow, 27 January, Wednesday

Time Temperature Precipitation Wind Pressure Humidity
00:00 +5°C° 0 mm 1 mps 756 mmHg 80%
01:00 +5°C° 0 mm 1 mps 756 mmHg 80%
02:00 +5°C° 0 mm 1 mps 755 mmHg 82%
03:00 +5°C° 0 mm 1 mps 755 mmHg 83%
04:00 +4°C° 0 mm 1 mps 755 mmHg 85%
05:00 +3°C° 0 mm 2 mps 755 mmHg 86%
06:00 +3°C° 0 mm 2 mps 754 mmHg 86%
07:00 +4°C° 0 mm 2 mps 754 mmHg 86%
08:00 +5°C° 0 mm 2 mps 754 mmHg 84%
09:00 +6°C° 0 mm 2 mps 754 mmHg 81%
10:00 +7°C° 0 mm 2 mps 754 mmHg 79%
11:00 +8°C° 0 mm 2 mps 754 mmHg 78%
12:00 +9°C° 0 mm 2 mps 754 mmHg 77%
13:00 +9°C° 0 mm 2 mps 754 mmHg 76%
14:00 +9°C° 0 mm 2 mps 754 mmHg 78%
15:00 +9°C° 0 mm 2 mps 754 mmHg 80%
16:00 +9°C° 0 mm 2 mps 754 mmHg 82%
17:00 +9°C° 0 mm 1 mps 754 mmHg 85%
18:00 +7°C° 0 mm 1 mps 754 mmHg 88%
19:00 +6°C° 0 mm 1 mps 755 mmHg 90%
20:00 +6°C° 0 mm 1 mps 755 mmHg 89%
21:00 +6°C° 0 mm 1 mps 756 mmHg 88%
22:00 +5°C° 0 mm 2 mps 756 mmHg 87%
23:00 +5°C° 0 mm 2 mps 756 mmHg 84%

28 January, Thursday

Time Temperature Precipitation Wind Pressure Humidity
00:00 +5°C° 0 mm 2 mps 756 mmHg 82%
01:00 +5°C° 0 mm 2 mps 756 mmHg 79%
02:00 +5°C° 0 mm 2 mps 756 mmHg 80%
03:00 +5°C° 0 mm 2 mps 756 mmHg 81%
04:00 +5°C° 0 mm 2 mps 756 mmHg 82%
05:00 +5°C° 0 mm 2 mps 756 mmHg 84%
06:00 +5°C° 0 mm 2 mps 756 mmHg 87%
07:00 +5°C° 0 mm 2 mps 756 mmHg 89%
08:00 +6°C° 0 mm 2 mps 756 mmHg 88%
09:00 +7°C° 0 mm 2 mps 756 mmHg 88%
10:00 +8°C° 0 mm 2 mps 756 mmHg 87%
11:00 +8°C° 0 mm 3 mps 756 mmHg 88%
12:00 +9°C° 0 mm 3 mps 756 mmHg 89%
13:00 +9°C° 0 mm 3 mps 755 mmHg 89%
14:00 +9°C° 0 mm 3 mps 755 mmHg 91%
15:00 +9°C° 0 mm 3 mps 755 mmHg 92%
16:00 +8°C° 0 mm 3 mps 754 mmHg 93%
17:00 +8°C° 0 mm 2 mps 754 mmHg 93%
18:00 +8°C° 0 mm 2 mps 753 mmHg 94%
19:00 +8°C° 0 mm 2 mps 753 mmHg 94%

29 January, Friday

Time Temperature Precipitation Wind Pressure Humidity

30 January, Saturday

Time Temperature Precipitation Wind Pressure Humidity
Show more